Location: Lauris
(43.7480°N, 5.3152°E)
Time: 07:03:21
(UTC+00:00)

Daily predictions for brighter satellites

Satellite Brightness Start Highest point End
(mag) Time Altitude Azimuth Time Altitude Azimuth Time Altitude Azimuth
COBE Rocket 4.2 16:52:32 10° N 16:57:40 79° WNW 17:02:50 10° SSW
Cosmos 1607 4.4 16:52:32 10° S 16:58:16 44° ESE 17:04:04 10° NE
Iridium 4 Rocket 4.5 16:55:26 10° SSW 16:59:22 40° W 17:03:19 10° NNW
SL-14 R/B 4.2 16:59:03 10° SSE 17:02:33 29° E 17:06:01 10° NNE
Cosmos 1300 3.8 16:59:35 10° NNE 17:02:44 24° ENE 17:05:51 10° SE
SJ 16-02 2.9 17:01:39 10° SW 17:05:42 35° WNW 17:09:48 10° N
Cosmos 2184 Rocket 4.0 17:01:21 10° S 17:07:26 62° E 17:13:30 10° NNE
KORONAS-FOTON 3.8 17:04:40 10° S 17:08:28 90° ESE 17:12:16 10° N
Cosmos 1271 Rocket 2.9 17:07:02 10° S 17:10:36 46° E 17:14:13 10° NNE
Cosmos 2228 4.1 17:07:08 10° NNW 17:11:21 49° W 17:15:29 10° SSW
Cosmos 2219 4.5 17:09:09 10° SE 17:13:06 20° E 17:17:03 10° NE
RESURS DK-1 4.4 17:09:24 10° NW 17:13:10 34° WSW 17:16:56 10° S
Cosmos 1726 3.7 17:09:53 10° NNW 17:13:19 39° W 17:16:44 10° SSW
Cosmos 372 Rocket 4.0 17:09:04 10° S 17:14:08 68° ESE 17:19:16 10° NNE
SKYMED 2 4.3 17:11:02 10° NNE 17:14:59 33° E 17:18:55 10° SSE
Cosmos 2154 Rocket 4.3 17:09:13 10° SSE 17:15:08 45° E 17:21:02 10° NNE
Cosmos 1174 4.1 17:14:33 10° NW 17:17:38 57° WSW 17:21:11 10° SSE
Cosmos 1892 Rocket 4.3 17:14:57 10° SSW 17:19:21 57° W 17:23:47 10° N
Cosmos 2333 4.2 17:14:20 10° NNW 17:20:06 82° ENE 17:25:46 10° SSE
ATLAS 5 CENTAUR R/B 2.5 17:16:15 10° WSW 17:20:17 43° NW 17:24:49 10° NNE
Cosmos 2322 3.8 17:16:16 10° NNW 17:21:57 86° WSW 17:27:37 10° SSE
Cosmos 2298 Rocket 4.0 17:19:51 10° SSW 17:25:08 87° ESE 17:30:29 10° NNE
CZ-4 R/B 1.9 17:24:27 10° SE 17:28:07 36° ENE 17:31:52 10° N
Cosmos 1812 Rocket 4.0 17:24:42 10° N 17:28:57 40° ENE 17:33:09 10° SSE
ADEOS Rocket 4.4 17:25:36 10° NE 17:30:25 21° E 17:35:31 10° SE
Cosmos 1626 2.2 17:27:30 10° S 17:31:07 55° E 17:34:46 10° NNE
Cosmos 2297 Rocket 3.5 17:27:51 10° SE 17:31:47 20° E 17:34:15 15° ENE
Cosmos 1980 4.4 17:27:13 10° N 17:32:16 31° NE 17:37:18 10° ESE
Cosmos 1610 Rocket 4.4 17:26:35 10° S 17:32:36 66° E 17:38:42 10° NNE
H-2A R/B 4.3 17:29:09 10° S 17:32:45 40° W 17:36:26 10° NNW
CZ-4C R/B 3.0 17:27:56 10° NNW 17:34:58 57° NE 17:43:00 10° SE
YAOGAN 1 3.1 17:32:00 10° SE 17:35:57 36° ENE 17:39:55 10° N
Cosmos 2360 Rocket 3.9 17:33:14 10° NW 17:38:22 37° WSW 17:43:27 10° S
Ariane Rocket 4.2 17:35:23 12° ESE 17:38:30 19° ENE 17:42:03 10° NNE
YAOGAN 6 2.5 17:35:04 10° SSE 17:38:45 78° ENE 17:42:28 10° N
USA 116 4.3 17:37:55 20° ENE 17:39:09 25° E 17:41:48 10° SSE
Cosmos 2074 Rocket 4.3 17:33:13 10° SSW 17:39:30 74° W 17:45:50 10° N
NOAA 12 4.5 17:36:13 10° S 17:41:25 69° WSW 17:46:39 10° NNW
COSMOS 2428 2.7 17:35:48 10° NNW 17:41:35 80° ENE 17:47:19 10° SSE
USA 267 4.3 17:35:54 10° NE 17:41:36 34° NNW 17:47:21 10° W
Cosmos 2227 Rocket 3.3 17:39:12 10° SSE 17:43:28 22° E 17:45:23 19° ENE
Cosmos 1242 Rocket 2.5 17:40:28 10° SSW 17:43:57 83° W 17:47:29 10° N
Cosmos 494 Rocket 4.2 17:39:28 10° N 17:44:24 45° ENE 17:49:17 10° SE
NOAA 11 4.4 17:40:43 10° SE 17:45:56 46° ENE 17:51:09 10° N
Cosmos 2219 Rocket 2.2 17:41:50 10° NNW 17:47:34 89° WSW 17:53:14 10° SSE
ERBS 4.2 17:46:20 10° SSE 17:48:23 16° SE 17:48:23 16° SE
Starlink AQ 3.1 17:45:58 10° WSW 17:48:45 54° NNW 17:49:59 28° NE
Starlink AS 3.2 17:48:37 10° WSW 17:51:24 51° NNW 17:52:31 29° NNE
Starlink BA 3.2 17:48:49 10° WSW 17:51:35 51° NNW 17:52:42 29° NNE
Starlink AU 3.2 17:49:01 10° WSW 17:51:47 51° NNW 17:52:53 29° NNE
Starlink AT 3.2 17:49:13 10° WSW 17:51:59 50° NNW 17:53:05 30° NNE
Starlink BB 3.2 17:49:25 10° WSW 17:52:11 50° NNW 17:53:17 30° NNE
Starlink BC 3.2 17:49:38 10° WSW 17:52:24 50° NNW 17:53:29 30° NNE
Starlink BK 3.2 17:49:49 10° WSW 17:52:36 50° NNW 17:53:40 30° NNE
Starlink AY 3.2 17:50:02 10° WSW 17:52:48 50° NNW 17:53:52 30° NNE
Starlink AW 3.2 17:50:15 10° WSW 17:53:02 50° NNW 17:54:07 30° NNE
Starlink BJ 3.2 17:50:23 10° WSW 17:53:09 49° NNW 17:54:13 30° NNE
Starlink AV 3.2 17:50:35 10° WSW 17:53:21 49° NNW 17:54:24 30° NNE
USA 32 4.1 17:48:30 10° SSE 17:53:33 52° E 17:58:37 10° NNE
Starlink BD 3.2 17:50:48 10° WSW 17:53:34 49° NNW 17:54:36 30° NNE
Starlink BE 3.2 17:51:01 10° WSW 17:53:48 49° NNW 17:54:51 30° NNE
Starlink BM 3.2 17:51:12 10° WSW 17:53:58 48° NNW 17:54:59 30° NNE
Starlink AX 3.3 17:51:25 10° WSW 17:54:12 48° NNW 17:55:14 30° NNE
Starlink BH 3.3 17:51:37 10° WSW 17:54:22 48° NNW 17:55:23 31° NNE
Cosmos-2242 3.8 17:50:41 10° NNE 17:54:30 29° ENE 17:58:16 10° SE
Cosmos 962 Rocket 4.5 17:48:37 10° S 17:54:33 57° E 18:00:34 10° NNE
Starlink AZ 3.3 17:51:49 10° WSW 17:54:35 48° NNW 17:55:35 31° NNE
Starlink BG 3.3 17:52:02 10° WSW 17:54:48 48° NNW 17:55:47 31° NNE
Starlink BF 3.3 17:52:14 10° WSW 17:55:00 47° NNW 17:55:59 31° NNE
Starlink BL 3.3 17:52:24 10° WSW 17:55:11 47° NNW 17:56:11 31° NNE
Cosmos 1602 Rocket 3.5 17:50:50 10° S 17:55:14 87° W 17:59:40 10° N
Starlink AH 3.3 17:52:35 10° WSW 17:55:21 47° NNW 17:56:19 31° NNE
Starlink AC 3.3 17:52:48 10° WSW 17:55:35 47° NNW 17:56:34 31° NNE
Starlink X 3.3 17:52:59 10° WSW 17:55:45 47° NNW 17:56:42 31° NNE
Starlink AE 3.3 17:53:13 10° WSW 17:55:59 47° NNW 17:56:58 31° NNE
Starlink Z 3.3 17:53:23 10° WSW 17:56:09 46° NNW 17:57:05 31° NNE
Starlink AK 3.3 17:53:37 10° WSW 17:56:23 46° NNW 17:57:19 32° NNE
Starlink AL 3.3 17:53:50 10° WSW 17:56:36 46° NNW 17:57:31 32° NNE
Starlink AD 3.3 17:54:00 10° WSW 17:56:45 46° NNW 17:57:40 32° NNE
Starlink Y 3.4 17:54:25 10° WSW 17:57:10 45° NNW 17:58:04 32° NNE
Starlink AG 3.4 17:54:37 10° WSW 17:57:22 45° NNW 17:58:16 32° NNE
Starlink W 3.4 17:54:49 10° WSW 17:57:34 45° NNW 17:58:28 32° NNE
Starlink AJ 3.4 17:55:00 10° WSW 17:57:45 45° NNW 17:58:37 32° NNE
Starlink AM 3.4 17:55:23 10° WSW 17:58:08 45° NNW 17:59:00 32° NNE
Starlink AP 3.4 17:55:35 10° WSW 17:58:20 44° NNW 17:59:12 32° NNE
Starlink AA 3.4 17:55:48 10° WSW 17:58:32 44° NNW 17:59:23 32° NNE
Starlink AF 3.4 17:56:02 10° WSW 17:58:48 44° NNW 17:59:39 32° NNE
Starlink AB 3.4 17:56:14 10° WSW 17:58:59 44° NNW 17:59:49 33° NNE
Starlink AN 3.4 17:56:24 10° WSW 17:59:08 44° NNW 17:59:58 33° NNE
Okean-O 3.5 17:55:36 10° S 17:59:54 51° W 18:04:15 10° NNW
Nadezhda 3 Rocket 4.1 17:54:17 10° N 18:00:35 86° W 18:06:55 10° S
COSMO-SKYMED 1 2.7 17:58:51 10° N 18:03:12 74° WNW 18:07:30 10° SSW
Timation 2 Rocket 4.2 17:58:52 10° SW 18:04:54 71° WNW 18:11:14 10° NNE
Cosmos 1953 Rocket 4.3 18:02:20 10° SSE 18:06:15 32° E 18:06:15 32° E
Starlink T 3.6 18:04:47 10° W 18:07:27 37° NNW 18:07:56 34° N
Starlink N 3.6 18:05:33 10° W 18:08:12 37° NNW 18:08:39 34° N
Starlink AR 3.7 18:07:32 10° W 18:09:49 30° NNW 18:09:53 30° NNW
Starlink Q 3.7 18:07:11 10° W 18:09:50 36° NNW 18:10:13 34° N
Starlink P 3.7 18:08:14 10° W 18:10:53 35° NNW 18:11:14 34° N
Cosmos 1758 Rocket 3.4 18:07:33 10° S 18:11:48 60° E 18:14:38 20° NNE
Starlink U 3.7 18:09:26 10° W 18:12:05 35° NNW 18:12:22 33° NNW
Starlink B 3.8 18:10:41 10° W 18:13:20 34° NNW 18:13:34 33° NNW
Cosmos 2341 Rocket 3.9 18:09:15 10° S 18:15:36 76° E 18:21:59 10° N
Cosmos 1461 3.9 18:12:28 10° NW 18:16:42 50° WSW 18:21:03 10° SSE
Starlink D 3.9 18:14:14 10° W 18:16:53 32° NNW 18:17:01 32° NNW
Starlink S 4.0 18:15:27 10° W 18:18:06 32° NNW 18:18:11 32° NNW
Starlink C 4.0 18:16:38 10° W 18:19:16 31° NNW 18:19:19 31° NNW
CZ-2D R/B 3.0 18:15:50 10° SSE 18:19:38 78° ENE 18:23:29 10° N
Starlink E 4.1 18:17:52 10° W 18:20:29 31° NNW 18:20:29 31° NNW
CSL-04 Debris 4.1 18:15:44 10° SSE 18:21:07 85° WSW 18:26:33 10° NNW
Cosmos 1125 Rocket 4.0 18:16:18 10° SSW 18:21:26 60° WNW 18:26:30 11° NNE
Starlink J 4.1 18:19:06 10° W 18:21:40 30° NNW 18:21:40 30° NNW
Starlink V 4.2 18:20:19 10° W 18:22:50 30° NNW 18:22:50 30° NNW
Starlink H 4.2 18:21:34 10° W 18:24:01 29° NNW 18:24:01 29° NNW
SL-8 Rocket 3.9 18:18:53 10° S 18:25:07 66° E 18:31:22 10° NNE
Starlink F 4.3 18:22:49 10° W 18:25:12 29° NNW 18:25:12 29° NNW
Starlink G 4.3 18:24:03 10° W 18:26:23 28° NW 18:26:23 28° NW
Meteor 1-21 Rocket 4.1 18:21:25 10° S 18:26:58 83° E 18:32:39 10° NNE
Starlink L 4.4 18:25:18 10° W 18:27:34 27° NW 18:27:34 27° NW
Cosmos 1340 Rocket 3.9 18:24:50 10° NNW 18:28:37 45° W 18:32:24 10° SSW
Starlink A 4.5 18:26:33 10° W 18:28:46 27° NW 18:28:46 27° NW
NOSS 0 Rocket 4.0 18:22:55 10° NNW 18:29:10 77° WSW 18:35:19 10° SSE
Cosmos 2333 Rocket 3.6 18:25:07 10° NW 18:30:23 39° WSW 18:35:35 10° S
Cosmos 2237 Rocket 2.0 18:29:26 10° NNW 18:35:06 84° ENE 18:40:14 13° SSE
Cosmos 1269 Rocket 4.0 18:31:04 10° NNW 18:36:23 83° WSW 18:41:39 10° SSE
Cosmos 1825 Rocket 3.6 18:34:12 10° SSW 18:38:34 78° W 18:40:38 31° N
Meteor 2-10 Rocket 3.4 18:34:10 10° N 18:39:35 68° ENE 18:44:43 10° SSE
Cosmos 1939 Rocket 3.3 18:35:53 10° S 18:39:41 60° W 18:43:35 10° NNW
Cosmos 2218 Rocket 3.9 18:45:39 10° S 18:51:57 87° E 18:58:23 10° N
SL-16 R/B 2.9 18:48:52 10° NNW 18:52:42 37° NNE 18:52:42 37° NNE
NOSS 2-1 (E) 4.4 18:49:30 10° NNW 18:55:00 66° NE 18:55:52 60° E
Cosmos 2219 3.6 18:51:09 10° SW 18:56:42 61° WNW 18:59:14 32° N
Cosmos 2082 4.3 18:56:12 10° S 19:00:03 42° SSE 19:00:03 42° SSE
CZ-4 R/B 4.1 19:00:25 10° SW 19:03:16 19° W 19:06:12 10° NW
Cosmos 864 Rocket 4.4 18:59:24 10° S 19:05:33 82° W 19:11:02 14° N
ATLAS 5 CENTAUR R/B 4.3 19:04:37 10° NW 19:06:20 12° NNW 19:07:27 11° N
H-2A R/B 4.3 19:18:10 14° N 19:18:10 14° N 19:18:47 10° N
Cosmos 2297 Rocket 2.5 19:09:41 10° SW 19:15:17 63° WNW 19:16:08 55° NNW
ADEOS Rocket 3.4 19:10:31 13° N 19:16:19 73° WNW 19:23:23 10° SSW
Ariane Rocket 3.4 19:15:33 42° SSW 19:17:00 59° WSW 19:22:02 10° NNW
FALCON 9 R/B 4.4 19:13:09 10° SW 19:21:38 21° S 19:22:14 21° S
USA 267 4.4 19:23:15 28° N 19:23:28 28° N 19:28:49 10° NW
CZ-4C R/B 4.1 19:16:42 10° NW 19:23:35 41° WSW 19:31:11 10° S
Cosmos 2227 Rocket 2.7 19:21:32 10° SW 19:27:04 56° WNW 19:27:16 55° NW
ATLAS 5 CENTAUR R/B 4.1 19:37:05 10° NNW 20:14:43 - SE 19:40:34 46° N
